Year,Month,Day,Hour,Minute,Value (Times are PST for temperature in C)
2016,05,24,16,41,18.40
2016,05,24,16,42,18.40
2016,05,24,16,43,18.40
2016,05,24,16,44,18.40
2016,05,24,16,45,18.40
2016,05,24,16,46,18.40
2016,05,24,16,47,18.40
2016,05,24,16,48,18.50
2016,05,24,16,49,18.60
2016,05,24,16,50,18.60
2016,05,24,16,51,18.70
2016,05,24,16,52,18.80
2016,05,24,16,53,19.00
2016,05,24,16,54,19.10
2016,05,24,16,55,19.10
2016,05,24,16,56,19.20
2016,05,24,16,57,19.20
2016,05,24,16,58,19.20
2016,05,24,16,59,19.10
2016,05,24,17,00,19.00
2016,05,24,17,01,19.00
2016,05,24,17,02,19.00
2016,05,24,17,03,18.90
2016,05,24,17,04,18.80
2016,05,24,17,05,18.80
2016,05,24,17,06,18.80
2016,05,24,17,07,18.70
2016,05,24,17,08,18.70
2016,05,24,17,09,18.70
2016,05,24,17,10,18.70
2016,05,24,17,11,18.60
2016,05,24,17,12,18.60
2016,05,24,17,13,18.50
2016,05,24,17,14,18.40
2016,05,24,17,15,18.50
2016,05,24,17,16,18.50
2016,05,24,17,17,18.50
2016,05,24,17,18,18.50
2016,05,24,17,19,18.40
2016,05,24,17,20,18.40
2016,05,24,17,21,18.40
2016,05,24,17,22,18.40
2016,05,24,17,23,18.30
2016,05,24,17,24,18.40
2016,05,24,17,25,18.40
2016,05,24,17,26,18.40
2016,05,24,17,27,18.50
2016,05,24,17,28,18.70
2016,05,24,17,29,18.80
2016,05,24,17,30,18.90
2016,05,24,17,31,19.00
2016,05,24,17,32,19.10
2016,05,24,17,33,19.20
2016,05,24,17,34,19.30
2016,05,24,17,35,19.30
2016,05,24,17,36,19.30
2016,05,24,17,37,19.20
2016,05,24,17,38,19.00
2016,05,24,17,39,18.90
2016,05,24,17,40,18.80
2016,05,24,17,41,18.80
2016,05,24,17,42,18.90
2016,05,24,17,43,19.00
2016,05,24,17,44,19.00
2016,05,24,17,45,19.10
2016,05,24,17,46,19.00
2016,05,24,17,47,18.90
2016,05,24,17,48,18.80
2016,05,24,17,49,18.80
2016,05,24,17,50,18.70
2016,05,24,17,51,18.70
2016,05,24,17,52,18.70
2016,05,24,17,53,18.70
2016,05,24,17,54,18.70
2016,05,24,17,55,18.60
2016,05,24,17,56,18.40
2016,05,24,17,57,18.40
2016,05,24,17,58,18.30
2016,05,24,17,59,18.20
2016,05,24,18,00,18.20
2016,05,24,18,01,18.20
2016,05,24,18,02,18.10
2016,05,24,18,03,18.10
2016,05,24,18,04,18.10
2016,05,24,18,05,18.10
2016,05,24,18,06,18.00
2016,05,24,18,07,17.90
2016,05,24,18,08,17.90
2016,05,24,18,09,17.90
2016,05,24,18,10,17.80
2016,05,24,18,11,17.80
2016,05,24,18,12,17.80
2016,05,24,18,13,17.70
2016,05,24,18,14,17.70
2016,05,24,18,15,17.70
2016,05,24,18,16,17.70
2016,05,24,18,17,17.70
2016,05,24,18,18,17.70
2016,05,24,18,19,17.70
2016,05,24,18,20,17.70
2016,05,24,18,21,17.70
2016,05,24,18,22,17.70
2016,05,24,18,23,17.70
2016,05,24,18,24,17.70
2016,05,24,18,25,17.70
2016,05,24,18,26,17.80
2016,05,24,18,27,17.80
2016,05,24,18,28,17.80
2016,05,24,18,29,17.80
2016,05,24,18,30,17.80
2016,05,24,18,31,17.80
2016,05,24,18,32,17.80
2016,05,24,18,33,17.80
2016,05,24,18,34,17.80
2016,05,24,18,35,17.90
2016,05,24,18,36,18.00
2016,05,24,18,37,18.00
2016,05,24,18,38,18.10
2016,05,24,18,39,18.10
2016,05,24,18,40,18.20
2016,05,24,18,41,18.20
2016,05,24,18,42,18.30
2016,05,24,18,43,18.30
2016,05,24,18,44,18.40
2016,05,24,18,45,18.40
2016,05,24,18,46,18.40
2016,05,24,18,47,18.30
2016,05,24,18,48,18.30
2016,05,24,18,49,18.30
2016,05,24,18,50,18.30
2016,05,24,18,51,18.30
2016,05,24,18,52,18.30
2016,05,24,18,53,18.30
2016,05,24,18,54,18.30
2016,05,24,18,55,18.30
2016,05,24,18,56,18.30
2016,05,24,18,57,18.40
2016,05,24,18,58,18.40
2016,05,24,18,59,18.40
2016,05,24,19,00,18.30
2016,05,24,19,01,18.30
2016,05,24,19,02,18.40
2016,05,24,19,03,18.40
2016,05,24,19,04,18.40
2016,05,24,19,05,18.40
2016,05,24,19,06,18.40
2016,05,24,19,07,18.40
2016,05,24,19,08,18.30
2016,05,24,19,09,18.40
2016,05,24,19,10,18.30
2016,05,24,19,11,18.30
2016,05,24,19,12,18.30
2016,05,24,19,13,18.30
2016,05,24,19,14,18.20
2016,05,24,19,15,18.20
2016,05,24,19,16,18.10
2016,05,24,19,17,18.10
2016,05,24,19,18,18.10
2016,05,24,19,19,18.00
2016,05,24,19,20,18.00
2016,05,24,19,21,18.00
2016,05,24,19,22,18.00
2016,05,24,19,23,18.00
2016,05,24,19,24,18.10
2016,05,24,19,25,18.10
2016,05,24,19,26,18.00
2016,05,24,19,27,17.90
2016,05,24,19,28,17.90
2016,05,24,19,29,17.80
2016,05,24,19,30,17.70
2016,05,24,19,31,17.60
2016,05,24,19,32,17.60
2016,05,24,19,33,17.50
2016,05,24,19,34,17.50
2016,05,24,19,35,17.50
2016,05,24,19,36,17.50
2016,05,24,19,37,17.50
2016,05,24,19,38,17.50
2016,05,24,19,39,17.60
2016,05,24,19,40,17.50
2016,05,24,19,41,17.50
2016,05,24,19,42,17.40
2016,05,24,19,43,17.40
2016,05,24,19,44,17.40
2016,05,24,19,45,17.40
2016,05,24,19,46,17.40
2016,05,24,19,47,17.40
2016,05,24,19,48,17.40
2016,05,24,19,49,17.30
2016,05,24,19,50,17.30
2016,05,24,19,51,17.30
2016,05,24,19,52,17.30
2016,05,24,19,53,17.30
2016,05,24,19,54,17.30
2016,05,24,19,55,17.30
2016,05,24,19,56,17.40
2016,05,24,19,57,17.40
2016,05,24,19,58,17.30
2016,05,24,19,59,17.30
2016,05,24,20,00,17.30
2016,05,24,20,01,17.20
2016,05,24,20,02,17.20
2016,05,24,20,03,17.20
2016,05,24,20,04,17.10
2016,05,24,20,05,17.10
2016,05,24,20,06,17.00
2016,05,24,20,07,17.00
2016,05,24,20,08,16.90
2016,05,24,20,09,16.80
2016,05,24,20,10,16.80
2016,05,24,20,11,16.70
2016,05,24,20,12,16.70
2016,05,24,20,13,16.60
2016,05,24,20,14,16.60
2016,05,24,20,15,16.50
2016,05,24,20,16,16.50
2016,05,24,20,17,16.40
2016,05,24,20,18,16.40
2016,05,24,20,19,16.30
2016,05,24,20,20,16.30
2016,05,24,20,21,16.30
2016,05,24,20,22,16.20
2016,05,24,20,23,16.20
2016,05,24,20,24,16.10
2016,05,24,20,25,16.10
2016,05,24,20,26,16.10
2016,05,24,20,27,16.10
2016,05,24,20,28,16.00
2016,05,24,20,29,16.00
2016,05,24,20,30,16.00
2016,05,24,20,31,15.90
2016,05,24,20,32,15.90
2016,05,24,20,33,15.90
2016,05,24,20,34,15.90
2016,05,24,20,35,15.90
2016,05,24,20,36,15.80
2016,05,24,20,37,15.80
2016,05,24,20,38,15.80
2016,05,24,20,39,15.80
2016,05,24,20,40,15.80
2016,05,24,20,41,15.80
2016,05,24,20,42,15.80
2016,05,24,20,43,15.80
2016,05,24,20,44,15.80
2016,05,24,20,45,15.70
2016,05,24,20,46,15.70
2016,05,24,20,47,15.70
2016,05,24,20,48,15.70
2016,05,24,20,49,15.70
2016,05,24,20,50,15.70
2016,05,24,20,51,15.70
2016,05,24,20,52,15.70
2016,05,24,20,53,15.70
2016,05,24,20,54,15.70
2016,05,24,20,55,15.70
2016,05,24,20,56,15.60
2016,05,24,20,57,15.60
2016,05,24,20,58,15.60
2016,05,24,20,59,15.60
2016,05,24,21,00,15.60
2016,05,24,21,01,15.60
2016,05,24,21,02,15.60
2016,05,24,21,03,15.60
2016,05,24,21,04,15.60
2016,05,24,21,05,15.60
2016,05,24,21,06,15.60
2016,05,24,21,07,15.50
2016,05,24,21,08,15.50
2016,05,24,21,09,15.40
2016,05,24,21,10,15.40
2016,05,24,21,11,15.40
2016,05,24,21,12,15.30
2016,05,24,21,13,15.30
2016,05,24,21,14,15.20
2016,05,24,21,15,15.20
2016,05,24,21,16,15.20
2016,05,24,21,17,15.20
2016,05,24,21,18,15.20
2016,05,24,21,19,15.10
2016,05,24,21,20,15.10
2016,05,24,21,21,15.00
2016,05,24,21,22,15.00
2016,05,24,21,23,14.90
2016,05,24,21,24,14.90
2016,05,24,21,25,14.80
2016,05,24,21,26,14.80
2016,05,24,21,27,14.80
2016,05,24,21,28,14.80
2016,05,24,21,29,14.70
2016,05,24,21,30,14.70
2016,05,24,21,31,14.70
2016,05,24,21,32,14.60
2016,05,24,21,33,14.60
2016,05,24,21,34,14.60
2016,05,24,21,35,14.50
2016,05,24,21,36,14.50
2016,05,24,21,37,14.50
2016,05,24,21,38,14.40
2016,05,24,21,39,14.40
2016,05,24,21,40,14.40
2016,05,24,21,41,14.40
2016,05,24,21,42,14.40
2016,05,24,21,43,14.30
2016,05,24,21,44,14.30
2016,05,24,21,45,14.30
2016,05,24,21,46,14.30
2016,05,24,21,47,14.30
2016,05,24,21,48,14.20
2016,05,24,21,49,14.20
2016,05,24,21,50,14.20
2016,05,24,21,51,14.20
2016,05,24,21,52,14.20
2016,05,24,21,53,14.20
2016,05,24,21,54,14.20
2016,05,24,21,55,14.20
2016,05,24,21,56,14.20
2016,05,24,21,57,14.20
2016,05,24,21,58,14.10
2016,05,24,21,59,14.10
2016,05,24,22,00,14.10
2016,05,24,22,01,14.10
2016,05,24,22,02,14.10
2016,05,24,22,03,14.10
2016,05,24,22,04,14.10
2016,05,24,22,05,14.10
2016,05,24,22,06,14.00
2016,05,24,22,07,14.00
2016,05,24,22,08,14.00
2016,05,24,22,09,14.00
2016,05,24,22,10,14.00
2016,05,24,22,11,14.00
2016,05,24,22,12,14.00
2016,05,24,22,13,14.00
2016,05,24,22,14,14.00
2016,05,24,22,15,14.00
2016,05,24,22,16,14.00
2016,05,24,22,17,14.00
2016,05,24,22,18,14.00
2016,05,24,22,19,13.90
2016,05,24,22,20,13.90
2016,05,24,22,21,13.90
2016,05,24,22,22,13.90
2016,05,24,22,23,13.90
2016,05,24,22,24,13.90
2016,05,24,22,25,13.90
2016,05,24,22,26,13.90
2016,05,24,22,27,13.90
2016,05,24,22,28,13.90
2016,05,24,22,29,13.90
2016,05,24,22,30,14.00
2016,05,24,22,31,14.00
2016,05,24,22,32,14.00
2016,05,24,22,33,14.00
2016,05,24,22,34,14.00
2016,05,24,22,35,14.00
2016,05,24,22,36,14.00
2016,05,24,22,37,13.90
2016,05,24,22,38,13.90
2016,05,24,22,39,13.90
2016,05,24,22,40,13.90
2016,05,24,22,41,13.90
2016,05,24,22,42,13.90
2016,05,24,22,43,13.90
2016,05,24,22,44,13.90
2016,05,24,22,45,13.90
2016,05,24,22,46,13.90
2016,05,24,22,47,13.90
2016,05,24,22,48,13.90
2016,05,24,22,49,13.90
2016,05,24,22,50,13.90
2016,05,24,22,51,13.90
2016,05,24,22,52,13.90
2016,05,24,22,53,13.90
2016,05,24,22,54,13.90
2016,05,24,22,55,13.90
2016,05,24,22,56,13.90
2016,05,24,22,57,13.90
2016,05,24,22,58,13.90
2016,05,24,22,59,13.90
2016,05,24,23,00,13.90
2016,05,24,23,01,13.90
2016,05,24,23,02,13.90
2016,05,24,23,03,13.90
2016,05,24,23,04,13.90
2016,05,24,23,05,13.90
2016,05,24,23,06,13.90
2016,05,24,23,07,13.90
2016,05,24,23,08,13.80
2016,05,24,23,09,13.80
2016,05,24,23,10,13.80
2016,05,24,23,11,13.80
2016,05,24,23,12,13.80
2016,05,24,23,13,13.80
2016,05,24,23,14,13.80
2016,05,24,23,15,13.80
2016,05,24,23,16,13.80
2016,05,24,23,17,13.70
2016,05,24,23,18,13.70
2016,05,24,23,19,13.70
2016,05,24,23,20,13.70
2016,05,24,23,21,13.70
2016,05,24,23,22,13.70
2016,05,24,23,23,13.70
2016,05,24,23,24,13.60
2016,05,24,23,25,13.60
2016,05,24,23,26,13.60
2016,05,24,23,27,13.60
2016,05,24,23,28,13.60
2016,05,24,23,29,13.60
2016,05,24,23,30,13.60
2016,05,24,23,31,13.60
2016,05,24,23,32,13.60
2016,05,24,23,33,13.60
2016,05,24,23,34,13.60
2016,05,24,23,35,13.60
2016,05,24,23,36,13.60
2016,05,24,23,37,13.60
2016,05,24,23,38,13.60
2016,05,24,23,39,13.60
2016,05,24,23,40,13.60
2016,05,24,23,41,13.60
2016,05,24,23,42,13.60
2016,05,24,23,43,13.50
2016,05,24,23,44,13.60
2016,05,24,23,45,13.50
2016,05,24,23,46,13.50
2016,05,24,23,47,13.60
2016,05,24,23,48,13.50
2016,05,24,23,49,13.50
2016,05,24,23,50,13.50
2016,05,24,23,51,13.50
2016,05,24,23,52,13.50
2016,05,24,23,53,13.50
2016,05,24,23,54,13.50
2016,05,24,23,55,13.50
2016,05,24,23,56,13.50
2016,05,24,23,57,13.50
2016,05,24,23,58,13.50
2016,05,24,23,59,13.50
